Time,TemperatureF,DewpointF,PressureIn,WindDirection,WindDirectionDegrees,WindSpeedMPH,WindSpeedGustMPH,Humidity,HourlyPrecipIn,Conditions,Clouds,dailyrainin,SoftwareType,DateUTC
2013-05-19 00:02:00,70.0,54.0,29.81,SE,133,8.0,8.0,57,0.00,,,0.00,,2013-05-19 05:02:00,
2013-05-19 00:22:00,69.0,55.0,29.81,SE,138,0.0,0.0,60,0.00,,,0.00,,2013-05-19 05:22:00,
2013-05-19 00:32:00,69.0,55.0,29.81,SE,128,6.0,6.0,62,0.00,,,0.00,,2013-05-19 05:32:00,
2013-05-19 00:42:00,68.0,55.0,29.81,ESE,121,4.0,4.0,63,0.00,,,0.00,,2013-05-19 05:42:00,
2013-05-19 00:52:00,68.0,55.0,29.81,ESE,121,4.0,4.0,63,0.00,,,0.00,,2013-05-19 05:52:00,
2013-05-19 01:02:00,68.0,55.0,29.81,SE,132,0.0,0.0,64,0.00,,,0.00,,2013-05-19 06:02:00,
2013-05-19 01:12:00,68.0,55.0,29.81,SE,132,0.0,0.0,64,0.00,,,0.00,,2013-05-19 06:12:00,
2013-05-19 01:21:00,68.0,55.0,29.81,South,170,0.0,6.0,64,0.00,,,0.00,,2013-05-19 06:21:00,
2013-05-19 01:32:00,68.0,55.0,29.81,SSW,195,0.0,5.0,64,0.00,,,0.00,,2013-05-19 06:32:00,
2013-05-19 01:42:00,68.0,55.0,29.81,South,174,0.0,6.0,64,0.00,,,0.00,,2013-05-19 06:42:00,
2013-05-19 01:52:00,68.0,55.0,29.81,South,174,0.0,6.0,64,0.00,,,0.00,,2013-05-19 06:52:00,
2013-05-19 02:01:00,68.0,56.0,29.81,ESE,120,5.0,5.0,65,0.00,,,0.00,,2013-05-19 07:01:00,
2013-05-19 02:11:00,68.0,56.0,29.81,ESE,120,5.0,5.0,65,0.00,,,0.00,,2013-05-19 07:11:00,
2013-05-19 02:21:00,67.0,55.0,29.84,South,172,4.0,4.0,66,0.00,,,0.00,,2013-05-19 07:21:00,
2013-05-19 02:32:00,67.0,56.0,29.84,SSE,167,0.0,3.0,67,0.00,,,0.00,,2013-05-19 07:32:00,
2013-05-19 02:42:00,67.0,56.0,29.84,SSE,167,0.0,3.0,67,0.00,,,0.00,,2013-05-19 07:42:00,
2013-05-19 02:52:00,67.0,56.0,29.84,SSW,197,6.0,6.0,69,0.00,,,0.00,,2013-05-19 07:52:00,
2013-05-19 03:01:00,67.0,56.0,29.84,SSW,211,3.0,5.0,68,0.00,,,0.00,,2013-05-19 08:01:00,
2013-05-19 03:12:00,67.0,56.0,29.84,SSW,211,3.0,5.0,68,0.00,,,0.00,,2013-05-19 08:12:00,
2013-05-19 03:22:00,68.0,56.0,29.84,SSW,194,5.0,8.0,66,0.00,,,0.00,,2013-05-19 08:22:00,
2013-05-19 03:32:00,68.0,56.0,29.84,SSW,193,8.0,14.0,66,0.00,,,0.00,,2013-05-19 08:32:00,
2013-05-19 03:42:00,68.0,56.0,29.84,SSW,193,8.0,14.0,66,0.00,,,0.00,,2013-05-19 08:42:00,
2013-05-19 03:52:00,68.0,56.0,29.81,SW,215,8.0,8.0,65,0.00,,,0.00,,2013-05-19 08:52:00,
2013-05-19 04:02:00,68.0,56.0,29.81,East,98,5.0,6.0,65,0.00,,,0.00,,2013-05-19 09:02:00,
2013-05-19 04:21:00,69.0,55.0,29.81,SSE,161,4.0,10.0,62,0.00,,,0.00,,2013-05-19 09:21:00,
2013-05-19 04:32:00,68.0,55.0,29.78,ENE,71,9.0,9.0,64,0.00,,,0.00,,2013-05-19 09:32:00,
2013-05-19 04:53:00,67.0,56.0,29.78,ESE,110,5.0,6.0,69,0.00,,,0.00,,2013-05-19 09:53:00,
2013-05-19 05:02:00,67.0,57.0,29.78,SE,125,3.0,8.0,70,0.00,,,0.00,,2013-05-19 10:02:00,
2013-05-19 05:12:00,67.0,57.0,29.78,South,180,14.0,14.0,70,0.00,,,0.00,,2013-05-19 10:12:00,
2013-05-19 05:22:00,67.0,57.0,29.78,South,180,14.0,14.0,70,0.00,,,0.00,,2013-05-19 10:22:00,
2013-05-19 05:33:00,67.0,57.0,29.81,SW,217,3.0,6.0,70,0.00,,,0.00,,2013-05-19 10:33:00,
2013-05-19 05:42:00,67.0,57.0,29.81,SW,217,3.0,6.0,70,0.00,,,0.00,,2013-05-19 10:42:00,
2013-05-19 05:52:00,67.0,57.0,29.81,SW,217,3.0,6.0,70,0.00,,,0.00,,2013-05-19 10:52:00,
2013-05-19 06:02:00,66.0,60.0,29.81,ESE,118,10.0,10.0,82,0.08,,,0.08,,2013-05-19 11:02:00,
2013-05-19 06:12:00,66.0,60.0,29.81,ESE,118,10.0,10.0,82,0.08,,,0.08,,2013-05-19 11:12:00,
2013-05-19 06:21:00,65.0,59.0,29.78,East,90,0.0,6.0,82,0.08,,,0.08,,2013-05-19 11:21:00,
2013-05-19 06:32:00,65.0,60.0,29.75,East,89,5.0,9.0,83,0.04,,,0.08,,2013-05-19 11:32:00,
2013-05-19 06:42:00,65.0,60.0,29.75,East,89,5.0,9.0,83,0.04,,,0.08,,2013-05-19 11:42:00,
2013-05-19 06:52:00,65.0,60.0,29.72,East,91,6.0,13.0,83,0.00,,,0.08,,2013-05-19 11:52:00,
2013-05-19 07:01:00,65.0,59.0,29.72,NNE,32,0.0,0.0,82,0.04,,,0.12,,2013-05-19 12:01:00,
2013-05-19 07:11:00,65.0,59.0,29.72,NNE,32,0.0,0.0,82,0.04,,,0.12,,2013-05-19 12:11:00,
2013-05-19 07:21:00,65.0,60.0,29.75,NNE,17,0.0,0.0,83,0.04,,,0.12,,2013-05-19 12:21:00,
2013-05-19 07:32:00,65.0,59.0,29.75,SE,142,0.0,6.0,81,0.04,,,0.12,,2013-05-19 12:32:00,
2013-05-19 07:41:00,65.0,59.0,29.75,SE,142,0.0,6.0,81,0.04,,,0.12,,2013-05-19 12:41:00,
2013-05-19 07:52:00,65.0,59.0,29.75,South,185,6.0,8.0,81,0.04,,,0.12,,2013-05-19 12:52:00,
2013-05-19 08:01:00,66.0,59.0,29.78,SSW,197,4.0,4.0,78,0.00,,,0.12,,2013-05-19 13:01:00,
2013-05-19 08:11:00,66.0,59.0,29.78,SSW,197,4.0,4.0,78,0.00,,,0.12,,2013-05-19 13:11:00,
2013-05-19 08:21:00,66.0,59.0,29.75,SSE,156,5.0,5.0,77,0.00,,,0.12,,2013-05-19 13:21:00,
2013-05-19 08:32:00,68.0,59.0,29.75,SE,141,8.0,8.0,72,0.00,,,0.12,,2013-05-19 13:32:00,
2013-05-19 08:42:00,68.0,59.0,29.75,SE,141,8.0,8.0,72,0.00,,,0.12,,2013-05-19 13:42:00,
2013-05-19 08:52:00,68.0,58.0,29.75,SW,223,0.0,6.0,71,0.00,,,0.12,,2013-05-19 13:52:00,
2013-05-19 09:02:00,69.0,57.0,29.78,North,353,0.0,0.0,65,0.00,,,0.12,,2013-05-19 14:02:00,
2013-05-19 09:11:00,69.0,57.0,29.78,North,353,0.0,0.0,65,0.00,,,0.12,,2013-05-19 14:11:00,
2013-05-19 09:21:00,71.0,56.0,29.75,East,82,0.0,10.0,60,0.00,,,0.12,,2013-05-19 14:21:00,
2013-05-19 09:32:00,72.0,56.0,29.75,ESE,123,0.0,10.0,57,0.00,,,0.12,,2013-05-19 14:32:00,
2013-05-19 09:41:00,72.0,56.0,29.75,ESE,123,0.0,10.0,57,0.00,,,0.12,,2013-05-19 14:41:00,
2013-05-19 09:52:00,71.0,55.0,29.75,ESE,108,0.0,15.0,57,0.00,,,0.12,,2013-05-19 14:52:00,
2013-05-19 10:01:00,71.0,57.0,29.75,ESE,106,8.0,10.0,61,0.00,,,0.12,,2013-05-19 15:01:00,
2013-05-19 10:11:00,71.0,57.0,29.75,ESE,106,8.0,10.0,61,0.00,,,0.12,,2013-05-19 15:11:00,
2013-05-19 10:21:00,71.0,57.0,29.75,ESE,119,0.0,4.0,61,0.00,,,0.12,,2013-05-19 15:21:00,
2013-05-19 10:33:00,71.0,57.0,29.75,ESE,109,13.0,16.0,61,0.00,,,0.12,,2013-05-19 15:33:00,
2013-05-19 10:43:00,71.0,57.0,29.75,ESE,109,13.0,16.0,61,0.00,,,0.12,,2013-05-19 15:43:00,
2013-05-19 10:53:00,72.0,57.0,29.69,South,184,10.0,14.0,59,0.00,,,0.12,,2013-05-19 15:53:00,
2013-05-19 11:03:00,73.0,57.0,29.75,South,177,9.0,19.0,58,0.00,,,0.12,,2013-05-19 16:03:00,
2013-05-19 11:12:00,73.0,57.0,29.75,South,177,9.0,19.0,58,0.00,,,0.12,,2013-05-19 16:12:00,
2013-05-19 11:23:00,74.0,58.0,29.75,SSE,151,9.0,21.0,57,0.00,,,0.12,,2013-05-19 16:23:00,
2013-05-19 11:32:00,75.0,60.0,29.75,ESE,118,16.0,19.0,59,0.00,,,0.12,,2013-05-19 16:32:00,
2013-05-19 11:42:00,75.0,60.0,29.75,ESE,118,16.0,19.0,59,0.00,,,0.12,,2013-05-19 16:42:00,
2013-05-19 11:52:00,76.0,60.0,29.75,South,180,8.0,13.0,57,0.00,,,0.12,,2013-05-19 16:52:00,
2013-05-19 12:02:00,77.0,60.0,29.75,South,175,9.0,9.0,55,0.00,,,0.12,,2013-05-19 17:02:00,
2013-05-19 12:22:00,78.0,59.0,29.72,SE,140,10.0,16.0,53,0.00,,,0.12,,2013-05-19 17:22:00,
2013-05-19 12:32:00,80.0,59.0,29.72,NNE,12,12.0,12.0,48,0.00,,,0.12,,2013-05-19 17:32:00,
2013-05-19 12:52:00,80.0,58.0,29.72,South,176,6.0,6.0,47,0.00,,,0.12,,2013-05-19 17:52:00,
2013-05-19 13:02:00,80.0,57.0,29.69,SSE,150,6.0,13.0,46,0.00,,,0.12,,2013-05-19 18:02:00,
2013-05-19 13:22:00,81.0,55.0,29.69,SSW,194,10.0,10.0,41,0.00,,,0.12,,2013-05-19 18:22:00,
2013-05-19 13:32:00,80.0,55.0,29.69,SSW,202,8.0,8.0,43,0.00,,,0.12,,2013-05-19 18:32:00,
2013-05-19 13:53:00,79.0,56.0,29.69,East,92,4.0,6.0,46,0.00,,,0.12,,2013-05-19 18:53:00,
2013-05-19 14:01:00,80.0,57.0,29.69,South,189,3.0,8.0,46,0.00,,,0.12,,2013-05-19 19:01:00,
2013-05-19 14:22:00,80.0,57.0,29.69,SE,141,3.0,8.0,46,0.00,,,0.12,,2013-05-19 19:22:00,
2013-05-19 14:32:00,82.0,59.0,29.66,ENE,67,9.0,13.0,45,0.00,,,0.12,,2013-05-19 19:32:00,
2013-05-19 14:52:00,79.0,57.0,29.66,SE,128,16.0,21.0,47,0.00,,,0.12,,2013-05-19 19:52:00,
2013-05-19 15:02:00,81.0,59.0,29.66,NE,54,6.0,6.0,47,0.00,,,0.12,,2013-05-19 20:02:00,
2013-05-19 15:21:00,79.0,58.0,29.63,SE,144,5.0,10.0,49,0.00,,,0.12,,2013-05-19 20:21:00,
2013-05-19 15:32:00,78.0,59.0,29.63,SE,137,11.0,11.0,52,0.00,,,0.12,,2013-05-19 20:32:00,
2013-05-19 15:41:00,78.0,59.0,29.63,SE,137,11.0,11.0,52,0.00,,,0.12,,2013-05-19 20:41:00,
2013-05-19 15:52:00,78.0,59.0,29.63,SE,137,11.0,11.0,52,0.00,,,0.12,,2013-05-19 20:52:00,
2013-05-19 16:02:00,67.0,64.0,29.63,SW,222,0.0,0.0,90,0.51,,,0.63,,2013-05-19 21:02:00,
2013-05-19 16:11:00,67.0,64.0,29.63,SW,222,0.0,0.0,90,0.51,,,0.63,,2013-05-19 21:11:00,
2013-05-19 16:22:00,71.0,68.0,29.63,SSW,195,13.0,13.0,91,0.51,,,0.63,,2013-05-19 21:22:00,
2013-05-19 16:32:00,72.0,69.0,29.63,SSW,201,0.0,0.0,90,0.51,,,0.63,,2013-05-19 21:32:00,
2013-05-19 16:43:00,72.0,69.0,29.63,SSW,201,0.0,0.0,90,0.51,,,0.63,,2013-05-19 21:43:00,
2013-05-19 16:53:00,78.0,61.0,29.63,SSW,198,9.0,9.0,55,0.00,,,0.63,,2013-05-19 21:53:00,
2013-05-19 17:02:00,79.0,58.0,29.63,WNW,299,6.0,6.0,48,0.00,,,0.63,,2013-05-19 22:02:00,
2013-05-19 17:12:00,79.0,58.0,29.63,WNW,299,6.0,6.0,48,0.00,,,0.63,,2013-05-19 22:12:00,
2013-05-19 17:23:00,80.0,57.0,29.63,WNW,299,6.0,6.0,46,0.00,,,0.63,,2013-05-19 22:23:00,
2013-05-19 17:33:00,80.0,57.0,29.63,WNW,299,6.0,6.0,46,0.00,,,0.63,,2013-05-19 22:33:00,
2013-05-19 17:53:00,78.0,58.0,29.63,ENE,70,0.0,0.0,51,0.00,,,0.63,,2013-05-19 22:53:00,
2013-05-19 18:02:00,76.0,58.0,29.63,NE,41,0.0,0.0,54,0.00,,,0.63,,2013-05-19 23:02:00,
2013-05-19 18:21:00,71.0,64.0,29.63,East,80,6.0,6.0,79,0.08,,,0.67,,2013-05-19 23:21:00,
2013-05-19 18:32:00,66.0,60.0,29.63,SW,232,6.0,6.0,82,0.28,,,0.91,,2013-05-19 23:32:00,
2013-05-19 18:42:00,67.0,63.0,29.60,North,3,0.0,4.0,86,0.28,,,0.91,,2013-05-19 23:42:00,
2013-05-19 18:52:00,67.0,63.0,29.60,North,3,0.0,4.0,86,0.28,,,0.91,,2013-05-19 23:52:00,
2013-05-19 19:02:00,66.0,61.0,29.60,NNE,18,0.0,0.0,85,0.28,,,0.91,,2013-05-20 00:02:00,
2013-05-19 19:11:00,66.0,61.0,29.60,NNE,18,0.0,0.0,85,0.28,,,0.91,,2013-05-20 00:11:00,
2013-05-19 19:21:00,66.0,63.0,29.60,SSE,154,0.0,0.0,89,0.20,,,0.91,,2013-05-20 00:21:00,
2013-05-19 19:32:00,66.0,62.0,29.60,South,184,0.0,4.0,88,0.04,,,0.91,,2013-05-20 00:32:00,
2013-05-19 19:42:00,66.0,62.0,29.60,South,184,0.0,4.0,88,0.04,,,0.91,,2013-05-20 00:42:00,
2013-05-19 19:52:00,66.0,63.0,29.60,SE,144,3.0,13.0,90,0.59,,,1.38,,2013-05-20 00:52:00,
2013-05-19 20:01:00,65.0,63.0,29.60,SW,214,0.0,0.0,92,1.30,,,2.20,,2013-05-20 01:01:00,
2013-05-19 20:11:00,65.0,63.0,29.60,SW,214,0.0,0.0,92,1.30,,,2.20,,2013-05-20 01:11:00,
2013-05-19 20:21:00,65.0,63.0,29.60,ENE,77,0.0,0.0,93,1.61,,,2.48,,2013-05-20 01:21:00,
2013-05-19 20:31:00,65.0,63.0,29.63,ENE,77,0.0,0.0,93,2.64,,,3.62,,2013-05-20 01:31:00,
2013-05-19 20:42:00,65.0,63.0,29.63,ENE,77,0.0,0.0,93,2.64,,,3.62,,2013-05-20 01:42:00,
2013-05-19 20:52:00,65.0,63.0,29.66,WSW,250,0.0,0.0,94,2.13,,,3.94,,2013-05-20 01:52:00,
2013-05-19 21:02:00,65.0,63.0,29.63,WSW,250,0.0,0.0,94,2.01,,,4.02,,2013-05-20 02:02:00,
2013-05-19 21:11:00,65.0,63.0,29.63,WSW,250,0.0,0.0,94,2.01,,,4.02,,2013-05-20 02:11:00,
2013-05-19 21:21:00,65.0,63.0,29.66,NW,321,0.0,0.0,94,1.26,,,4.09,,2013-05-20 02:21:00,
2013-05-19 21:31:00,65.0,64.0,29.63,North,353,0.0,0.0,95,0.67,,,4.13,,2013-05-20 02:31:00,
2013-05-19 21:42:00,65.0,64.0,29.63,North,353,0.0,0.0,95,0.67,,,4.13,,2013-05-20 02:42:00,
2013-05-19 21:52:00,65.0,64.0,29.69,North,353,0.0,0.0,95,0.47,,,4.17,,2013-05-20 02:52:00,
2013-05-19 22:01:00,65.0,64.0,29.66,ESE,110,0.0,0.0,95,0.16,,,4.21,,2013-05-20 03:01:00,
2013-05-19 22:11:00,64.0,63.0,29.66,East,80,5.0,5.0,96,0.24,,,4.33,,2013-05-20 03:11:00,
2013-05-19 22:21:00,64.0,63.0,29.66,East,80,5.0,5.0,96,0.24,,,4.33,,2013-05-20 03:21:00,
2013-05-19 22:33:00,63.0,62.0,29.60,NE,55,10.0,11.0,96,0.20,,,4.33,,2013-05-20 03:33:00,
2013-05-19 22:42:00,63.0,62.0,29.57,ESE,112,8.0,9.0,96,0.16,,,4.33,,2013-05-20 03:42:00,
2013-05-19 22:52:00,63.0,62.0,29.57,ESE,112,8.0,9.0,96,0.16,,,4.33,,2013-05-20 03:52:00,
2013-05-19 23:01:00,62.0,61.0,29.57,East,84,0.0,0.0,96,0.08,,,4.33,,2013-05-20 04:01:00,
2013-05-19 23:02:00,63.0,62.0,29.57,ESE,112,8.0,9.0,96,0.16,,,4.33,,2013-05-20 04:02:00,
2013-05-19 23:12:00,62.0,61.0,29.57,East,84,0.0,0.0,96,0.08,,,4.33,,2013-05-20 04:12:00,
2013-05-19 23:23:00,62.0,61.0,29.57,East,84,0.0,0.0,96,0.08,,,4.33,,2013-05-20 04:23:00,
2013-05-19 23:33:00,62.0,61.0,29.57,East,84,0.0,0.0,96,0.08,,,4.33,,2013-05-20 04:33:00,
2013-05-19 23:43:00,62.0,61.0,29.57,East,84,0.0,0.0,96,0.08,,,4.33,,2013-05-20 04:43:00,
2013-05-19 23:52:00,62.0,61.0,29.57,East,84,0.0,0.0,96,0.08,,,4.33,,2013-05-20 04:52:00,